Regional Weather Roundup
Issued by NWS New Orleans/Baton Rouge, LA

Home | Current Version | Previous Version | Text Only | Print | Product List | Glossary On
Versions: 1 2 3 4 5 6 7 8 9 10 11 12 13 14 15 16 17 18 19 20 21 22 23 24 25 26 27 28 29 30 31 32 33 34 35 36 37 38 39 40 41 42 43 44 45 46 47 48 49 50
622
ASUS44 KLIX 261801
RWRLIX
NEW ORLEANS REGIONAL WEATHER ROUNDUP
NATIONAL WEATHER SERVICE NEW ORLEANS LA
1200 PM CST MON JAN 26 2015

NOTE: "FAIR" INDICATES FEW OR NO CLOUDS BELOW 12,000 FEET WITH NO
      SIGNIFICANT WEATHER AND/OR OBSTRUCTIONS TO VISIBILITY.
      SKY/WX - SKY CONDITION AND SIGNIFICANT WEATHER.
      TMP - AIR TEMPERATURE.     DP    - DEWPOINT TEMPERATURE.
      RH  - RELATIVE HUMIDITY.   PRES  - PRESSURE.
      HI  - HEAT INDEX.          WCI   - WIND CHILL INDEX.

*  THESE STATIONS ARE NOT NWS OR FAA STATIONS AND ARE NOT UNDER
   NWS QUALITY CONTROL.

LAZ038-040-048-061>063-065>067-069-261900-
SOUTHEAST LOUISIANA

CITY           SKY/WX    TMP DP  RH WIND       PRES   REMARKS
N.O. AUDUBON     N/A     59  39  47 MISG        N/A
6HR MIN TEMP:  47; 6HR MAX TEMP:  59;

N.O. INTL ARPT MOSUNNY   57  37  47 NW13      30.11F
6HR MIN TEMP:  48; 6HR MAX TEMP:  57;

N.O. LAKEFRONT SUNNY     56  39  53 NW14      30.11F
6HR MIN TEMP:  51; 6HR MAX TEMP:  56;

N.O. DOWNTOWN*   N/A     55  36  47 N9        30.11F
6HR MIN TEMP:  50; 6HR MAX TEMP:  55;

SLIDELL        SUNNY     61  35  37 NW12G17   30.09F
BATON ROUGE    SUNNY     57  33  40 NW12      30.13F
6HR MIN TEMP:  45; 6HR MAX TEMP:  57;

BOOTHVILLE     SUNNY     54  39  57 NW14      30.11F
6HR MIN TEMP:  48; 6HR MAX TEMP:  54;

BELLE CHASSE   MOSUNNY   56  34  43 NW9G20    30.10F
6HR MIN TEMP:  49; 6HR MAX TEMP:  57;

BOGALUSA*        N/A     58  37  45 NW12G20   30.12F
6HR MIN TEMP:  43; 6HR MAX TEMP:  58;

GALLIANO*      NOT AVBL
NEW ROADS*     NOT AVBL
GONZALES*      NOT AVBL
HAMMOND*       NOT AVBL
HOUMA*         SUNNY     59  36  41 NW10      30.12F
PORT FOURCHON* CLEAR     55  37  50 NW13      30.16F

$$

MSZ070-080>082-261900-
SOUTHERN MISSISSIPPI

CITY           SKY/WX    TMP DP  RH WIND       PRES   REMARKS
MCCOMB         SUNNY     54  35  48 N10       30.12F
6HR MIN TEMP:  41; 6HR MAX TEMP:  54;

GULFPORT       SUNNY     57  36  45 NW18G26   30.06F
6HR MIN TEMP:  39; 6HR MAX TEMP:  58;

BILOXI         SUNNY     57  37  47 N15       30.06F
6HR MIN TEMP:  42; 6HR MAX TEMP:  57;

PASCAGOULA     SUNNY     57  37  47 N16G25    30.04F
6HR MIN TEMP:  45; 6HR MAX TEMP:  58;

STENNIS ARPT*  SUNNY     57  32  38 N12G21    30.09F

$$

COASTAL OBSERVATIONS
LAKE AND NEARSHORE STATIONS

STATION/POSITION TIME  TEMP    WIND        PRES    WAVE
                       AIR SEA DIR/SP/G            HT/PER
                 (UTC) (F)     (DEG/KT/KT) (MB)    (FT/S)
PASCAGOULA       1719   54     310/ 11/ 18 1017.9
WAVELAND YACHT   1719   52     350/ 17/ 20 1018.1
GRAND ISLE       1719   53 56  330/ 14/ 17 1020.8
SOUTHWEST PASS   1719   55 46   10/ 10/ 12 1020.6
NEW CANAL        1719   52 52  330/  1/  5 1020.9
SHELL BEACH      1719   50 52  310/ 16/ 18 1019.8

OFFSHORE STATIONS

STATION/POSITION TIME  TEMP    WIND        PRES    WAVE
                       AIR SEA DIR/SP/G            HT/PER
                 (UTC) (F)     (DEG/KT/KT) (MB)    (FT/S)
64 S DAUPHIN ISL 1651   53 70  330/ 21/ 27 1018.3    7/ 6

$$




USA.gov is the U.S. government's official web portal to all federal, state and local government web resources and services.